[Date Prev][Date Next][Thread Prev][Thread Next] - [Date Index][Thread Index][Author Index]
2 Line ISS Keps 7-27
- Subject: [sarex] 2 Line ISS Keps 7-27
- From: "Dave Larsen PhD" <doc@xxxxxxxxxxx>
- Date: Tue, 27 Jul 2004 04:56:49 -0700
ISS
1 25544U 98067A 04209.40231481 .00037007 00000-0 30095-3 0 3090
2 25544 51.6318 120.5557 0006331 52.7852 99.2576 15.70286311324633
----
Via the sarex mailing list at AMSAT.ORG courtesy of AMSAT-NA.
To unsubscribe, send "unsubscribe sarex" to Majordomo@amsat.org
AMSAT Home